Home > Weather > Galway > Past weeks

Flag for Ireland Past Weather in Galway, Ireland — Yesterday and Last 2 Weeks

Now
63 °F

Partly sunny.


Feels Like: 63 °F
Forecast: 55 / 62 °F
Wind: 13 mph from Southwest

Location: Shannon Airport

Current Time: Jul 30, 2016 at 2:12:07 PM

Latest Report: Jul 30, 2016 at 1:30 PM


Visibility: N/A

Pressure: 30.04 "Hg

Humidity: 64%

Dew Point: 50 °F

Location of GalwayLocation

Past Weather in Galway — Graph

°F

Galway Temperature Yesterday

Maximum temperature yesterday: 66 °F (at 4:30 PM)
Minimum temperature yesterday: 57 °F (at 6:30 AM)
Average temperature yesterday: 61 °F

High & Low Weather Summary for the Past Weeks

 TemperatureHumidityPressure
High82 °F (Jul 19, 1:30 PM)100% (Jul 28, 1:00 AM)30.24 "Hg (Jul 28, 1:00 AM)
Low52 °F (Jul 30, 5:00 AM)37% (Jul 18, 5:30 PM)29.77 "Hg (Jul 20, 4:30 AM)
Average62 °F83%30.02 "Hg
* Reported Jul 15 1:00 PM — Jul 30 1:00 PM, Galway, Weather by CustomWeather, © 2016

Note: Actual official high and low records may vary slightly from our data, if they occured in-between our weather recording intervals... More about our weather records

Advertising

Galway Weather History for the Previous 24 Hours

Scroll right to see more
 ConditionsComfort  
Time TempWeatherWind HumidityBarometerVisibility
1:00 PM
Sat, Jul 30
63 °FBroken clouds.7 mph68%30.04 "HgN/A
12:30 PM63 °FBroken clouds.8 mph68%30.04 "HgN/A
12:00 PM61 °FPartly sunny.5 mph72%30.04 "HgN/A
11:30 AM57 °FSprinkles. Broken clouds.12 mph82%30.04 "HgN/A
11:00 AM59 °FPartly sunny.8 mph82%30.04 "HgN/A
10:30 AM55 °FPartly sunny.12 mph94%30.04 "Hg5 mi
10:00 AM59 °FSprinkles. Broken clouds.7 mph82%30.04 "HgN/A
9:30 AM59 °FScattered clouds.2 mph77%30.04 "HgN/A
9:00 AM59 °FPartly sunny.3 mph77%30.04 "HgN/A
8:30 AM57 °FPartly sunny.1 mph88%30.01 "HgN/A
8:00 AM55 °FPartly sunny.3 mph94%30.01 "HgN/A
7:30 AM55 °FPartly sunny.6 mph94%30.01 "HgN/A
7:00 AM54 °FDrizzle. Broken clouds.7 mph94%30.01 "Hg4 mi
6:30 AM54 °FFog.5 mph94%30.01 "Hg2 mi
6:00 AM52 °FFog.2 mph100%30.01 "HgN/A
5:30 AM52 °FFog.3 mph100%30.01 "HgN/A
5:00 AM52 °FFog.5 mph100%30.01 "HgN/A
4:30 AM54 °FPassing clouds.2 mph94%30.01 "HgN/A
4:00 AM54 °FPassing clouds.5 mph100%30.01 "HgN/A
3:30 AM55 °FPassing clouds.3 mph94%30.01 "HgN/A
3:00 AM55 °FPassing clouds.5 mph94%30.01 "HgN/A
2:30 AM57 °FPassing clouds.6 mph88%30.01 "HgN/A
2:00 AM57 °FPartly cloudy.6 mph88%30.01 "HgN/A
1:30 AM57 °FPassing clouds.7 mph94%30.01 "HgN/A
1:00 AM57 °FPassing clouds.6 mph94%30.01 "HgN/A
12:30 AM57 °FPassing clouds.5 mph88%30.01 "HgN/A
12:00 AM57 °FPassing clouds.6 mph88%30.01 "HgN/A
11:30 PM
Fri, Jul 29
57 °FPassing clouds.7 mph88%30.01 "HgN/A
11:00 PM57 °FPartly cloudy.7 mph88%30.01 "HgN/A
10:30 PM59 °FBroken clouds.9 mph88%29.98 "HgN/A
10:00 PM59 °FPartly sunny.9 mph88%29.98 "HgN/A
9:30 PM61 °FBroken clouds.8 mph77%29.98 "HgN/A
9:00 PM61 °FPartly sunny.9 mph83%29.98 "HgN/A
8:30 PM61 °FPartly sunny.12 mph83%29.95 "HgN/A
8:00 PM63 °FPartly sunny.10 mph73%29.95 "HgN/A
7:30 PM64 °FPartly sunny.13 mph68%29.95 "HgN/A
7:00 PM64 °FPartly sunny.12 mph73%29.95 "HgN/A
6:30 PM64 °FPartly sunny.14 mph73%29.95 "HgN/A
6:00 PM66 °FPartly sunny.12 mph64%29.95 "HgN/A
5:30 PM66 °FPartly sunny.13 mph68%29.95 "HgN/A
5:00 PM66 °FBroken clouds.14 mph64%29.95 "HgN/A
4:30 PM66 °FPartly sunny.9 mph60%29.95 "HgN/A
4:00 PM64 °FScattered clouds.7 mph60%29.95 "HgN/A
3:30 PM64 °FPartly sunny.9 mph60%29.95 "HgN/A
3:00 PM64 °FBroken clouds.9 mph60%29.95 "HgN/A
2:30 PM64 °FBroken clouds.8 mph60%29.95 "HgN/A
2:00 PM64 °FBroken clouds.10 mph64%29.95 "HgN/A
Weather by CustomWeather, © 2016

See weather overviewHow to use our weather pages